DECAYED
Showing default

PROGRESS MS-30, 63129 (Decayed)

Orbit data source: Space-Track

PROGRESS MS-30, 63129 was a payload satellite owned by RKKE (CIS) in LEO that was launched on Thu, 27 Feb 2025 UTC via a SOYUZ-2-1A launch vehicle from the Tyuratam Missile And Space Complex (TTMTR). Payload-class satellites include a variety of spacecraft equipped with specific instruments for various scientific and technological missions. These include communications satellites like Starlink; space stations such as the ISS; scientific satellites like the Hubble; Earth observation satellites from companies like Planet Labs, Umbra, and HawkEye 360; GPS; miniature CubeSats for education and research; and military/defense satellites.

Loading next visibility...
Identifier
63129, 2025-041B
Orbit
Decayed
Country
Flag of CISCIS
Related business
Manufacturer
TsSKB-Progress
Mission
Decayed Civil Spaceship
Bus & Motor
7K-TGM, 11D428A
Mass
7,500 kg wet, 4,325 kg dry
Launch date (UTC)
2025-02-27 (1 year ago)
Launch vehicle
SOYUZ-2-1A
Launch site
Tyuratam Missile And Space Complex (TTMTR)
Object type
Payload
Rocket body
Debris
Shape & HBR
Cyl + Sphere + Cone + 2 Pan, 14.5 m
Radar Cross Section
19.615 m², Large (>1 m²)

Expand to show TLE details & history
Last TLE update: 9 months ago

TLE from 9 months ago
0 PROGRESS MS-30
1 63129U 25041B   25252.45260968  .00008772  00000-0  16034-3 0  9990
2 63129  51.6326 249.4150 0004250 319.3865  40.6806 15.50206013 26912
Epoch: 2025-09-09T10:51Z
TLE epoch observation values (Epoch: 2025-09-09T10:51:45.476Z)
Latitude
-0.00005°
Longitude
97.73231°
Altitude
414.676 km
Speed
7.665 km/s
True Right ascension
16h 37m 39s
True Declination
0° 00' 00"
Sunlit
Object was in daylight at epoch
Visualization orbit readout
Latitude
Unknown
Longitude
Unknown
Altitude
Unknown
Speed
Unknown
Apparent Right ascension
Unknown
Apparent Declination
Unknown
Sunlit
N/A
Visualization observer readout
Local Sidereal Time
07:11:51
Azimuth
Unknown
Elevation
Unknown
Doppler factor
Unknown
Orbital elements
Apogee altitude
419.521 km
Perigee altitude
413.745 km
Semi-major axis
6,794.77 km
Eccentricity
0.00043
Inclination
51.6326°
RAAN
249.415°
Arg. of periapsis
319.3865°
True anomaly
40.71236°
Mean anomaly
40.6806°
Eccentric anomaly
40.69648°
Mean motion
3.87508 °/min
Orbital period
92.9 mins
BSTAR
0.00016034
Loading maneuver chart data...
Computing Atmospheric mass density...
Loading historical data...
Loading historical data...
Loading historical data...
Loading historical data...
Loading historical data...
Loading historical data...
Loading historical data...
Other satellites on launch #41 in the year 2025 (2025-02-27 UTC)

Documentation

Showing up to 5 results
|